SCP
0 0 1 1 1 0 0 0 0 0 0 0 0 1 1 1 0 0 0 0 0 0 0 0 0 0 0 0 0 0 0 0 0 0 0 0 0 0 0 0 0 0 0 0
0 0 1 1 1 0 0 0 0 0 0 0 0 1 1 1 0 0 0 0 0 0 0 0 0 0 0 0 0 0 0 0 0 0 0 0 0 0 0 0 0 0 0 0
0 0 0 0 0 0 1 0 0 0 0 0 0 0 1 0 0 0 0 0 0 0 0 0 0 0 0 0 0 0 0 0 0 0 0 0 0 0 0 0 0 0 0 0
0 0 0 0 0 0 0 0 0 0 0 0 0 0 0 0 0 0 0 0 0 0 0 0 0 0 0 0 0 0 0 0 0 0 0 0 0 0 0 0 0 0 0 0
0 0 0 0 0 0 0 0 0 0 0 0 0 0 0 0 0 0 0 0 0 0 0 0 0 0 0 0 0 0 0 0 0 0 0 0 0 0 0 0 0 0 0 0
0 0 0 0 0 0 0 0 0 0 0 0 0 0 0 0 0 0 0 0 0 0 0 0 0 0 0 0 0 0 0 0 0 0 0 0 0 0 0 0 0 0 0 0
0 0 0 0 0 0 0 0 0 0 0 0 0 0 0 0 0 0 0 0 0 0 0 0 0 0 0 0 0 0 0 0 0 0 0 0 0 0 0 0 0 0 0 0
0 0 0 0 0 0 0 0 0 0 0 0 0 0 0 0 0 0 0 0 0 0 0 0 0 0 0 0 0 0 0 0 0 0 0 0 0 0 0 0 0 0 0 0
0 0 0 0 0 0 0 0 0 0 0 0 0 0 0 0 0 0 0 0 0 0 0 0 0 0 0 0 0 0 0 0 0 0 0 0 0 0 0 0 0 0 0 0
0 0 0 0 0 0 0 0 0 0 0 0 0 0 0 0 0 0 0 0 0 0 0 0 0 0 0 0 0 0 0 0 0 0 0 0 0 0 0 0 0 0 0 0
0 0 0 0 0 0 0 0 0 0 0 0 0 0 0 0 0 0 0 0 0 0 0 0 0 0 0 0 0 0 0 0 0 0 0 0 0 0 0 0 0 0 0 0
0 0 0 0 0 0 0 0 0 0 0 0 0 0 0 0 0 0 0 0 0 0 0 0 0 0 0 0 0 0 0 0 0 0 0 0 0 0 0 0 0 0 0 0
0 0 0 0 0 0 0 0 0 0 0 0 0 0 0 0 0 0 0 0 0 0 0 0 0 0 0 0 0 0 0 0 0 0 0 0 0 0 0 0 0 0 0 0
0 0 0 0 0 0 0 0 0 0 0 0 0 0 0 0 0 0 0 0 0 0 0 0 0 0 0 0 0 0 0 0 0 0 0 0 0 0 0 0 0 0 0 0
0 0 0 0 0 0 0 0 0 0 0 0 0 0 0 0 0 0 0 0 0 0 0 0 0 0 0 0 0 0 0 0 0 0 0 0 0 0 0 0 0 0 0 0
0 0 0 0 0 0 0 0 0 0 0 0 0 0 0 0 0 0 0 0 0 0 0 0 0 0 0 0 0 0 0 0 0 0 0 0 0 0 0 0 0 0 0 0
0 0 0 0 0 0 0 0 0 0 0 0 0 0 0 0 0 0 0 0 0 0 0 0 0 0 0 0 0 0 0 0 0 0 0 0 0 0 0 0 0 0 0 0
0 0 0 0 0 0 0 0 0 0 0 0 0 0 0 0 0 0 0 0 0 0 0 0 0 0 0 0 0 0 0 0 0 0 0 0 0 0 0 0 0 0 0 0
0 0 0 0 0 0 0 0 0 0 0 0 0 0 0 0 0 0 0 0 0 0 0 0 0 0 0 0 0 0 0 0 0 0 0 0 0 0 0 0 0 0 0 0
0 0 0 0 0 0 0 0 0 0 0 0 0 0 0 0 0 0 0 0 0 0 0 0 0 0 0 0 0 0 0 0 0 0 0 0 0 0 0 0 0 0 0 0
0 0 0 0 0 0 0 0 0 0 0 0 0 0 0 0 0 0 0 0 0 0 0 0 0 0 0 0 0 0 0 0 0 0 0 0 0 0 0 0 0 0 0 0
0 0 0 0 0 0 0 0 0 0 0 0 0 0 0 0 0 0 0 0 0 0 0 0 0 0 0 0 0 0 0 0 0 0 0 0 0 0 0 0 0 0 0 0
0 0 0 0 0 0 0 0 0 0 0 0 0 0 0 0 0 0 0 0 0 0 0 0 0 0 0 0 0 0 0 0 0 0 0 0 0 0 0 0 0 0 0 0
0 0 0 0 0 0 0 0 0 0 0 0 0 0 0 0 0 0 0 0 0 0 0 0 0 0 0 0 0 0 0 0 0 0 0 0 0 0 0 0 0 0 0 0
0 0 0 0 0 0 0 0 0 0 0 0 0 0 0 0 0 0 0 0 0 0 0 0 0 0 0 0 0 0 0 0 0 0 0 0 0 0 0 0 0 0 0 0
0 0 0 0 0 0 0 0 0 0 0 0 0 0 0 0 0 0 0 0 0 0 0 0 0 0 0 0 0 0 0 0 -0 -0 0 0 0 0 0 0 0 0 0 0
0 0 0 0 0 0 0 0 0 0 0 0 0 0 0 0 0 0 0 0 0 0 0 0 0 0 0 0 0 0 0 0 -0 -0 -0 -0 -0 0 0 0 0 0 0 0
Wind_Speed
1 1 2 3 3 2 2 3 4 3 2 2 4 5 6 7 9 9 9 9 8 6 5 4 3 3 2 2 2 2 3 4 3 3 4 4 4 5 5 6 6 5 6 6
3 3 5 6 7 4 3 2 1 1 1 1 3 5 6 8 10 10 9 9 8 7 6 5 4 3 3 2 2 2 3 3 3 4 4 5 5 5 6 6 6 6 6 6
0 2 3 4 4 3 3 3 1 1 0 2 4 5 6 7 8 8 8 9 8 7 6 4 4 3 3 2 2 3 3 3 3 4 4 4 5 6 6 5 6 6 7 6
2 3 2 1 1 2 2 4 3 2 2 3 3 3 3 4 6 7 7 7 7 6 4 4 3 3 3 3 3 3 3 3 3 3 4 4 5 5 5 4 5 5 6 6
3 2 1 1 2 1 0 2 3 2 4 4 6 5 4 3 4 5 6 6 5 4 4 4 5 4 4 3 3 3 2 2 2 3 3 4 5 5 4 4 5 5 4 6
3 3 1 2 4 2 2 1 1 2 4 3 3 2 1 2 5 5 6 5 5 4 4 5 4 5 5 3 3 2 2 2 2 3 3 3 3 3 3 3 4 4 6 6
3 2 1 3 6 1 1 3 1 2 3 3 2 2 4 5 5 5 6 6 6 5 4 4 4 5 4 3 2 2 3 3 3 3 3 3 3 3 3 3 4 5 6 6
2 2 1 4 3 2 2 1 1 2 2 4 4 5 6 6 6 7 6 5 5 5 4 3 4 5 5 3 2 3 4 4 4 3 3 3 3 3 3 4 5 5 5 5
3 3 3 2 1 1 2 2 1 2 3 6 6 5 5 5 6 6 6 5 4 5 5 3 3 4 4 3 3 4 5 4 4 4 4 3 3 3 3 3 3 3 3 4
2 1 1 2 2 2 1 2 2 4 5 6 6 6 6 6 5 5 4 4 4 5 5 3 2 3 3 4 4 5 5 4 3 4 4 4 3 2 2 2 2 2 2 2
2 0 2 3 2 1 3 4 5 4 4 5 7 6 6 5 5 4 4 4 4 4 4 3 3 3 3 4 5 5 4 3 3 3 3 3 3 3 2 1 0 1 1 1
3 4 3 2 1 2 4 4 5 5 4 4 5 6 6 5 4 4 4 4 4 4 4 3 3 3 3 4 5 5 4 3 2 2 2 2 2 3 6 4 4 3 2 1
3 2 2 2 1 2 3 3 4 5 6 5 4 6 6 5 4 4 4 5 5 4 4 4 4 4 3 4 5 5 4 3 2 2 2 1 1 2 2 4 5 5 4 3
2 3 2 1 1 2 4 5 5 5 5 5 5 5 6 5 5 5 5 5 5 5 4 4 4 3 3 4 4 4 3 3 2 1 1 1 1 1 1 1 1 2 3 4
1 2 3 2 3 4 5 5 6 5 5 4 4 5 6 6 5 4 4 5 5 5 4 4 4 3 3 4 4 4 3 2 2 1 1 1 1 1 1 0 0 1 2 3
2 3 4 4 4 4 5 5 5 5 5 4 4 4 5 5 5 4 4 5 5 5 4 4 4 3 3 4 4 3 2 3 3 2 1 1 1 1 1 1 1 1 1 2
4 2 3 3 4 4 4 5 6 6 5 5 5 5 5 5 5 4 4 4 4 4 4 5 4 3 4 5 4 3 2 2 2 2 1 1 1 1 1 1 2 2 2 2
4 4 5 6 6 5 4 5 5 6 6 6 6 6 6 6 6 5 4 4 3 2 3 4 4 4 4 4 4 3 3 2 2 2 1 1 2 2 2 2 3 3 2 2
2 3 3 4 5 6 5 5 5 6 6 7 7 7 6 6 6 5 5 5 5 4 4 4 6 5 4 5 5 3 3 3 2 2 2 2 2 2 2 3 3 3 3 2
1 2 3 3 4 4 4 4 5 5 6 7 7 6 5 5 5 5 5 5 5 5 5 5 5 4 4 5 5 3 3 3 3 2 2 2 2 2 3 3 3 3 3 3
1 2 3 3 3 3 4 5 6 6 6 7 8 8 7 6 6 6 5 4 4 4 4 6 5 4 4 5 6 4 4 3 3 3 3 3 3 3 3 3 3 4 4 4
1 1 2 2 3 3 3 4 5 6 6 6 7 6 6 5 6 5 5 5 5 6 5 4 4 6 6 6 4 4 4 4 4 3 3 3 3 3 4 4 4 4 4 4
1 1 2 2 3 3 2 3 5 6 7 7 8 8 7 7 6 6 5 5 4 7 6 5 7 9 9 6 4 5 5 5 5 4 4 4 4 4 4 5 4 4 4 4
1 1 1 1 2 3 3 3 4 4 6 6 7 8 7 5 4 6 5 5 8 9 6 7 10 11 9 5 5 5 5 5 5 5 5 5 5 5 5 5 5 5 5 6
1 1 1 2 2 3 4 3 3 4 4 4 5 6 6 6 6 6 6 6 8 9 6 8 12 11 8 6 6 6 6 6 6 6 6 5 6 6 6 6 6 6 6 6
1 1 2 3 3 3 2 3 3 3 4 4 4 4 5 5 5 5 5 6 8 9 8 6 7 8 7 8 8 8 7 7 7 7 7 7 7 7 7 7 9 7 6 7
0 0 0 1 1 2 2 3 4 4 5 5 5 5 6 6 6 6 7 6 6 7 7 7 7 7 8 8 8 8 8 7 7 7 7 7 7 7 8 9 7 7 7 7
Wind_Direction
132 151 114 72 28 57 117 172 181 231 201 209 185 172 157 146 142 144 149 151 152 152 148 141 135 124 108 87 63 64 67 58 43 33 35 35 30 23 21 23 24 22 29 28
57 73 87 64 30 35 42 42 54 70 17 27 111 121 138 151 155 158 160 157 155 154 156 161 157 144 122 97 76 78 75 62 51 46 43 39 32 28 28 26 23 29 31 31
100 309 70 36 2 18 38 19 36 59 262 121 125 144 155 161 160 162 163 158 159 161 165 165 156 144 132 121 107 91 81 71 57 57 52 40 37 35 29 24 30 31 27 31
88 71 93 243 33 59 76 39 29 68 98 115 118 101 100 129 143 149 152 153 158 156 149 140 129 122 117 114 110 99 84 75 66 64 57 46 42 35 25 24 31 29 26 27
96 91 82 0 14 0 57 28 20 91 102 94 102 77 56 87 127 141 145 146 147 144 139 135 130 129 118 107 104 95 82 75 72 76 70 57 44 31 22 30 36 33 28 29
97 101 151 288 316 316 130 11 356 126 139 138 114 106 194 137 119 119 119 126 129 125 120 127 130 127 119 112 104 101 95 84 75 77 78 67 52 39 28 41 43 44 41 31
93 104 314 311 312 12 94 272 281 154 156 146 132 170 147 126 114 117 118 120 123 121 121 131 134 129 123 118 114 104 99 90 77 71 70 72 57 45 49 52 51 47 46 35
99 93 279 328 10 75 224 266 104 129 127 118 115 113 117 116 116 117 113 112 116 117 113 117 134 132 127 127 116 98 92 85 74 65 64 72 68 55 49 53 57 45 42 35
158 192 255 304 307 290 179 142 135 135 132 129 124 124 119 117 116 116 117 115 113 121 117 108 122 133 135 135 118 104 93 84 73 63 57 60 71 67 54 49 58 51 46 40
81 14 338 352 1 10 66 123 126 133 138 134 131 130 122 121 119 117 118 119 119 119 119 112 109 119 134 133 123 111 101 90 80 72 60 52 54 56 66 62 64 61 55 41
62 304 28 9 12 68 73 88 99 103 119 136 132 130 130 129 127 127 125 122 127 130 130 127 120 115 125 131 124 113 106 98 84 75 74 66 56 42 47 34 19 111 88 64
204 220 177 233 250 113 110 114 122 114 101 112 130 131 128 131 132 132 132 127 127 130 130 126 122 120 121 129 129 124 115 108 99 93 82 81 81 56 43 48 52 73 89 88
193 179 165 177 121 110 123 130 124 120 128 124 118 127 130 131 132 132 133 135 140 143 135 129 127 126 129 134 134 132 134 133 122 115 107 91 82 79 49 25 42 47 43 39
153 114 100 114 132 120 121 118 108 103 109 119 122 123 123 122 127 136 147 151 144 136 133 134 134 135 141 139 137 136 135 139 137 134 123 113 113 104 94 66 14 351 359 3
63 129 157 136 112 112 115 116 113 114 115 112 120 129 132 136 142 147 145 138 130 131 137 141 142 150 150 142 140 140 141 146 142 134 137 137 126 121 115 92 330 319 332 340
78 84 106 119 129 133 132 136 141 149 143 142 143 147 147 145 141 137 138 140 141 153 160 156 162 169 155 143 138 139 153 166 156 149 150 149 144 155 186 222 263 277 286 298
121 123 128 138 156 164 169 171 169 165 162 164 166 154 139 133 132 142 153 160 163 167 169 170 178 170 156 152 148 152 156 160 160 160 188 201 206 219 225 235 248 258 261 256
176 182 181 177 175 177 178 173 172 172 175 173 154 147 151 157 168 178 174 155 145 157 189 189 181 165 160 160 154 153 157 164 179 201 217 216 220 222 219 229 241 250 262 263
149 170 179 179 176 174 176 180 185 183 171 157 157 165 172 176 179 175 160 154 166 192 214 198 182 174 176 177 164 163 170 181 199 218 221 230 233 237 232 231 239 246 253 258
135 159 164 169 167 169 178 181 174 170 169 161 159 161 170 181 175 167 164 181 201 204 195 180 178 185 192 189 178 178 188 195 206 219 223 231 243 253 251 249 251 252 251 252
141 147 157 165 177 186 183 174 168 173 172 167 171 180 186 185 174 166 168 203 230 205 188 186 186 192 196 192 186 187 195 202 211 219 222 230 242 252 255 254 254 253 251 251
166 169 179 175 171 188 189 173 169 169 167 175 181 179 175 179 180 181 198 211 214 191 185 192 199 203 200 192 190 196 202 207 214 219 224 230 237 247 255 256 254 255 253 251
201 187 180 183 187 190 171 169 174 174 179 185 186 185 188 192 185 185 216 224 203 196 195 205 210 209 203 195 198 205 209 212 217 222 228 234 239 243 251 257 255 254 255 255
199 199 198 179 146 145 177 199 187 188 190 193 196 194 187 187 204 215 219 210 201 199 206 213 213 213 205 205 207 213 218 221 224 228 233 238 242 244 246 251 256 257 254 255
192 179 146 138 167 205 212 194 177 186 188 200 208 203 197 195 202 212 207 210 208 204 214 219 216 213 209 212 215 219 223 227 229 229 233 236 242 245 247 249 250 253 254 253
183 202 212 214 215 215 196 177 187 197 193 206 222 216 210 209 211 207 204 211 209 208 214 218 212 209 211 216 220 223 225 229 232 232 235 237 242 243 246 248 251 250 251 251
316 206 223 271 255 210 192 191 201 209 205 207 221 220 211 210 210 213 213 215 213 213 217 219 215 212 214 218 223 225 226 228 230 232 235 238 240 242 245 246 248 249 249 251